TimeEST,TemperatureF,Dew PointF,Humidity,Sea Level PressureIn,VisibilityMPH,Wind Direction,Wind SpeedMPH,Gust SpeedMPH,PrecipitationIn,Events,Conditions,WindDirDegrees,DateUTC
12:24 AM,33.8,30.2,87,29.53,9.0,Calm,Calm,-,0.00,,Overcast,0,2013-03-01 05:24:00
12:52 AM,33.1,30.9,92,29.56,10.0,Calm,Calm,-,0.00,,Overcast,0,2013-03-01 05:52:00
1:31 AM,33.8,30.2,87,29.53,10.0,Calm,Calm,-,N/A,,Overcast,0,2013-03-01 06:31:00
1:52 AM,34.0,30.9,89,29.57,10.0,Calm,Calm,-,N/A,,Overcast,0,2013-03-01 06:52:00
2:52 AM,33.1,30.9,92,29.57,10.0,Calm,Calm,-,N/A,,Overcast,0,2013-03-01 07:52:00
3:52 AM,33.1,30.9,92,29.58,10.0,Calm,Calm,-,N/A,,Overcast,0,2013-03-01 08:52:00
4:52 AM,33.1,30.0,89,29.59,7.0,Calm,Calm,-,0.00,Snow,Light Snow,0,2013-03-01 09:52:00
5:39 AM,32.0,30.2,93,29.57,8.0,NNE,3.5,-,0.00,Snow,Light Snow,20,2013-03-01 10:39:00
6:05 AM,32.0,28.4,87,29.57,9.0,Calm,Calm,-,0.00,Snow,Light Snow,0,2013-03-01 11:05:00
6:52 AM,32.0,27.0,82,29.62,10.0,North,4.6,-,0.00,,Overcast,360,2013-03-01 11:52:00
7:52 AM,30.9,25.0,79,29.63,10.0,NW,6.9,-,N/A,,Overcast,320,2013-03-01 12:52:00
8:52 AM,30.9,26.1,82,29.64,10.0,NNW,5.8,-,N/A,,Overcast,330,2013-03-01 13:52:00
9:52 AM,30.9,26.1,82,29.66,10.0,Calm,Calm,-,N/A,,Overcast,0,2013-03-01 14:52:00
9:59 AM,30.2,26.6,86,29.62,10.0,North,5.8,-,N/A,,Overcast,360,2013-03-01 14:59:00
10:12 AM,30.2,26.6,86,29.62,10.0,North,4.6,-,N/A,,Overcast,360,2013-03-01 15:12:00
10:52 AM,32.0,26.1,79,29.66,10.0,North,5.8,-,N/A,,Overcast,360,2013-03-01 15:52:00
12:52 PM,32.0,25.0,75,29.67,10.0,NNW,3.5,-,N/A,,Overcast,330,2013-03-01 17:52:00
1:52 PM,32.0,26.1,79,29.66,10.0,NNW,4.6,-,0.00,,Overcast,330,2013-03-01 18:52:00
2:52 PM,32.0,26.1,79,29.67,9.0,WNW,5.8,-,0.01,,Overcast,290,2013-03-01 19:52:00
3:52 PM,32.0,26.1,79,29.67,8.0,WNW,4.6,-,0.00,Snow,Light Snow,300,2013-03-01 20:52:00
4:52 PM,32.0,26.1,79,29.68,9.0,WNW,3.5,-,0.00,Snow,Light Snow,290,2013-03-01 21:52:00
5:52 PM,30.9,27.0,85,29.70,9.0,Calm,Calm,-,0.00,Snow,Light Snow,0,2013-03-01 22:52:00
7:21 PM,30.2,26.6,86,29.67,8.0,NNW,3.5,-,0.00,Snow,Light Snow,330,2013-03-02 00:21:00
7:52 PM,30.9,26.1,82,29.72,7.0,Calm,Calm,-,0.00,Snow,Light Snow,0,2013-03-02 00:52:00
8:11 PM,30.2,26.6,86,29.68,6.0,Calm,Calm,-,0.00,Snow,Light Snow,0,2013-03-02 01:11:00
8:19 PM,30.2,26.6,86,29.68,5.0,Calm,Calm,-,0.00,Snow,Light Snow,0,2013-03-02 01:19:00
8:52 PM,30.0,27.0,88,29.72,3.0,Calm,Calm,-,0.00,Snow,Light Snow,0,2013-03-02 01:52:00
9:03 PM,30.2,26.6,86,29.67,2.5,Calm,Calm,-,0.01,Snow,Light Snow,0,2013-03-02 02:03:00
9:11 PM,30.2,26.6,86,29.67,5.0,Calm,Calm,-,0.01,Snow,Light Snow,0,2013-03-02 02:11:00
9:52 PM,28.9,26.1,89,29.71,5.0,Calm,Calm,-,0.01,Snow,Light Snow,0,2013-03-02 02:52:00
10:52 PM,30.0,26.1,85,29.70,10.0,Calm,Calm,-,0.00,,Overcast,0,2013-03-02 03:52:00
11:52 PM,30.0,26.1,85,29.70,9.0,Calm,Calm,-,0.00,Snow,Light Snow,0,2013-03-02 04:52:00